GGSE 3 DEB, 44043

Orbit data source: Space-Track

GGSE 3 DEB, 44043 is space debris in LEO originally from a launch on Tue, 09 Mar 1965 UTC launched from the Air Force Western Test Range (AFWTR). Debris objects in space refer to the collection of defunct objects orbiting the Earth. Examples of debris include non-operational satellites, rocket bodies, and fragments generated from explosions, collisions, or faulty payload assembly.

Loading next visibility...
Identifier
44043, 1965-016L
Orbit
LEO
Country
Flag of USUS
Related business
Manufacturer
Unknown
Mission
Spacecraft
Bus & Motor
Unknown
Mass
Unknown
Launch date (UTC)
1965-03-09 (61 years ago)
Launch vehicle
Unknown
Launch site
Air Force Western Test Range (AFWTR)
Object type
Payload
Rocket body
Debris
Shape & HBR
Unknown shape, 0.1 m
Radar Cross Section
Small (<0.1 m²)

Expand to show TLE details & history
Last TLE update: 16 hours ago

TLE from 16 hours ago
0 GGSE 3 DEB
1 44043U 65016L   26034.97106974  .00000575  00000-0  39659-3 0  9993
2 44043  70.0733 230.3451 0016723 131.7856 228.4687 14.04069044357054
Epoch: 2026-02-03T23:18Z
TLE epoch observation values (Epoch: 2026-02-03T23:18:20.425Z)
Latitude
0.00002°
Longitude
106.61565°
Altitude
890.125 km
Speed
7.403 km/s
True Right ascension
15h 21m 22s
True Declination
0° 00' 00"
Sunlit
Object was in daylight at epoch
Visualization orbit readout
Latitude
Unknown
Longitude
Unknown
Altitude
Unknown
Speed
Unknown
Apparent Right ascension
Unknown
Apparent Declination
Unknown
Sunlit
N/A
Visualization observer readout
Local Sidereal Time
17:33:29
Azimuth
Unknown
Elevation
Unknown
Doppler factor
Unknown
Orbital elements
Apogee altitude
889.901 km
Perigee altitude
865.633 km
Semi-major axis
7,255.904 km
Eccentricity
0.00167
Inclination
70.0733°
RAAN
230.3451°
Arg. of periapsis
131.7856°
True anomaly
228.32544°
Mean anomaly
228.4687°
Eccentric anomaly
228.39705°
Mean motion
3.51161 °/min
Orbital period
102.52 mins
BSTAR
0.00039659
Loading maneuver chart data...
Computing Atmospheric mass density...
Loading historical data...
Loading historical data...
Loading historical data...
Loading historical data...
Loading historical data...
Loading historical data...
Loading historical data...

Documentation

Showing up to 5 results
|